Regional Weather Roundup
Issued by NWS Columbia, SC

Home | Current Version | Previous Version | Text Only | Print | Product List | Glossary On
Versions: 1 2 3 4 5 6 7 8 9 10 11 12 13 14 15 16 17 18 19 20 21 22 23 24 25 26 27 28
000
ASUS42 KCAE 211810
RWRCAE
REGIONAL WEATHER ROUNDUP
NATIONAL WEATHER SERVICE COLUMBIA SC
200 PM EDT THU SEP 21 2017

NOTE: "FAIR" INDICATES FEW OR NO CLOUDS BELOW 12,000 FEET WITH NO
SIGNIFICANT WEATHER AND/OR OBSTRUCTIONS TO VISIBILITY.

NOT ALL STATIONS ARE QUALITY CONTROLLED BY THE NATIONAL
WEATHER SERVICE. USE DATA WITH CAUTION...ESPECIALLY
DEWPOINT OBSERVATIONS.

SCZ001>056-GAZ040-063>065-077-211900-
...UPSTATE SOUTH CAROLINA...

CITY           SKY/WX    TMP DP  RH WIND       PRES   REMARKS
ANDERSON       MOSUNNY   88  65  46 MISG      30.05F
6HR MIN TEMP:  67; 6HR MAX TEMP:  88;

LIBERTY        PTCLDY    89  65  45 S3        30.05F
6HR MIN TEMP:  61; 6HR MAX TEMP:  89;

SPARTANBURG    SUNNY     86  61  42 CALM      30.05F
CLEMSON        MOSUNNY   87  66  49 CALM      30.06F
6HR MIN TEMP:  69; 6HR MAX TEMP:  87;

GREENVILLE     MOSUNNY   87  62  43 CALM      30.07F
6HR MIN TEMP:  72; 6HR MAX TEMP:  88;

GREENWOOD      SUNNY     88  67  49 CALM      30.06F
6HR MIN TEMP:  66; 6HR MAX TEMP:  89;

GREER          SUNNY     87  63  44 NE6       30.07F
6HR MIN TEMP:  67; 6HR MAX TEMP:  88;

ROCK HILL        N/A    N/A N/A N/A MISG      30.06F
CHESTER        PTCLDY    86  59  39 CALM      30.06F
LAURENS        CLEAR     88  64  45 NE6       30.05F


...CENTRAL SOUTH CAROLINA...

CITY           SKY/WX    TMP DP  RH WIND       PRES   REMARKS
COLUMBIA APT   MOSUNNY   91  63  39 VRB3      30.00
6HR MIN TEMP:  72; 6HR MAX TEMP:  94;

COLUMBIA OWENS MOSUNNY   93  63  36 VRB6      30.01F
6HR MIN TEMP:  71; 6HR MAX TEMP:  93;

MCENTIRE ANGB  MOSUNNY   90  65  42 CALM      30.01F
6HR MIN TEMP:  68; 6HR MAX TEMP:  93; 6HR PCP: TRACE;

ORANGEBURG     PTSUNNY   88  65  46 CALM      30.01F
6HR MIN TEMP:  72; 6HR MAX TEMP:  91;

SUMTER SHAW    MOSUNNY   91  64  41 NE6       29.98F
6HR MIN TEMP:  73; 6HR MAX TEMP:  92;

NEWBERRY       CLEAR     88  64  45 NE6       30.06F
AIKEN          FAIR      88  64  45 CALM      30.06F
BARNWELL       FAIR      91  68  46 E5        30.01F HX  95
MANNING        MOCLDY    90  54  29 E3G99     30.01F
CAMDEN         FAIR      91  63  38 W7        30.02F
LANCASTER      PTCLDY    88  64  45 E5        30.04F
WINNSBORO      PTCLDY    88  64  45 NW6       30.03F


...EASTERN AND COASTAL SOUTH CAROLINA...

CITY           SKY/WX    TMP DP  RH WIND       PRES   REMARKS
MYRTLE BEACH   SUNNY     86  74  67 S10       30.02F
6HR MIN TEMP:  73; 6HR MAX TEMP:  88;

N MYRTLE BCH   SUNNY     86  74  67 S8        30.00F
6HR MIN TEMP:  73; 6HR MAX TEMP:  89;

CONWAY         MOCLDY    90  68  48 NE3       30.00F HAZE
MARION         MOCLDY    88  68  51 N5        30.01F HAZE
HARTSVILLE     FAIR      79  64  61 S6        30.02S
FLORENCE       MOSUNNY   90  68  48 VRB3      30.00F
6HR MIN TEMP:  70; 6HR MAX TEMP:  90;

DARLINGTON     SUNNY     90  71  53 VRB5      30.01F HX  96
6HR MIN TEMP:  67; 6HR MAX TEMP:  91;

CHARLESTON APT MOSUNNY   88  72  58 VRB5      30.01F
6HR MIN TEMP:  74; 6HR MAX TEMP:  92; 6HR PCP: TRACE;

MOUNT PLEASANT MOCLDY    84  75  74 S7        30.01F
WALTERBORO     PTCLDY    88  70  55 S5        30.01F
BEAUFORT       MOSUNNY   89  71  55 CALM      30.01F HX  95
6HR MIN TEMP:  74; 6HR MAX TEMP:  90;



...EASTERN GEORGIA...

CITY           SKY/WX    TMP DP  RH WIND       PRES   REMARKS
AUGUSTA BUSH F MOSUNNY   94  63  35 NW6       30.00F HX  95
AUGUSTA DANIEL PTSUNNY   93  64  38 VRB6      30.03F
6HR MIN TEMP:  74; 6HR MAX TEMP:  94;

THOMSON        MOSUNNY   87  66  50 CALM      30.08F
6HR MIN TEMP:  66; 6HR MAX TEMP:  91;

WASHINGTON     FAIR     N/A N/A N/A CALM      30.04F
CLAXTON        FAIR      91  71  51 SE6       30.01F HX  96
6HR MIN TEMP:  70; 6HR MAX TEMP:  92;

SYLVANIA       MOCLDY    89  74  61 NE3       30.02F HX  97
6HR MIN TEMP:  69; 6HR MAX TEMP:  89;

STATESBORO     MOSUNNY   90  65  44 CALM      30.02F
SAVANNAH       PTSUNNY   90  68  48 CALM      30.02F
6HR MIN TEMP:  73; 6HR MAX TEMP:  90;



...SOUTHERN NORTH CAROLINA...

CITY           SKY/WX    TMP DP  RH WIND       PRES   REMARKS
CHARLOTTE      MOSUNNY   88  64  44 VRB3      30.06F
6HR MIN TEMP:  69; 6HR MAX TEMP:  88;

MONROE         MOSUNNY   87  66  49 NW7       30.04F
6HR MIN TEMP:  67; 6HR MAX TEMP:  88;

WADESBORO      PTCLDY    91  62  38 N7        30.02F
RUTHERFORDTON  SUNNY     85  61  44 SE3       30.09F
ASHEVILLE      MOSUNNY   84  60  44 W7        30.13F
6HR MIN TEMP:  60; 6HR MAX TEMP:  84;


$$




USA.gov is the U.S. government's official web portal to all federal, state and local government web resources and services.